TimeEDT,TemperatureF,Dew PointF,Humidity,Sea Level PressureIn,VisibilityMPH,Wind Direction,Wind SpeedMPH,Gust SpeedMPH,PrecipitationIn,Events,Conditions,WindDirDegrees,DateUTC
12:51 AM,42.1,27.0,55,29.86,10.0,NW,8.1,-,N/A,,Clear,320,2013-03-27 04:51:00
1:51 AM,41.0,25.0,53,29.87,10.0,WNW,12.7,-,N/A,,Clear,300,2013-03-27 05:51:00
2:51 AM,39.9,24.1,53,29.86,10.0,NW,17.3,-,N/A,,Partly Cloudy,310,2013-03-27 06:51:00
3:51 AM,39.0,24.1,55,29.86,10.0,NW,10.4,-,N/A,,Partly Cloudy,320,2013-03-27 07:51:00
4:51 AM,39.0,24.1,55,29.86,10.0,NW,15.0,-,N/A,,Partly Cloudy,310,2013-03-27 08:51:00
5:51 AM,39.0,23.0,53,29.88,10.0,NW,12.7,-,N/A,,Partly Cloudy,310,2013-03-27 09:51:00
6:51 AM,37.9,21.9,53,29.90,10.0,WNW,11.5,-,N/A,,Partly Cloudy,300,2013-03-27 10:51:00
7:51 AM,39.0,23.0,53,29.91,10.0,WNW,12.7,-,N/A,,Clear,300,2013-03-27 11:51:00
8:51 AM,39.9,26.1,58,29.92,10.0,NW,12.7,21.9,N/A,,Clear,320,2013-03-27 12:51:00
9:51 AM,43.0,26.1,51,29.92,10.0,NW,13.8,-,N/A,,Partly Cloudy,310,2013-03-27 13:51:00
10:51 AM,45.0,26.1,48,29.91,10.0,NW,12.7,-,N/A,,Partly Cloudy,320,2013-03-27 14:51:00
11:51 AM,48.2,24.8,40,29.90,10.0,NW,9.2,-,N/A,,Scattered Clouds,310,2013-03-27 15:51:00
12:51 PM,48.0,21.0,34,29.89,10.0,NW,10.4,19.6,N/A,,Mostly Cloudy,310,2013-03-27 16:51:00
1:51 PM,48.9,19.0,31,29.88,10.0,NW,12.7,-,N/A,,Mostly Cloudy,320,2013-03-27 17:51:00
2:51 PM,48.9,21.9,35,29.87,10.0,WNW,10.4,-,N/A,,Mostly Cloudy,290,2013-03-27 18:51:00
3:51 PM,51.1,19.0,28,29.86,10.0,NW,13.8,19.6,N/A,,Mostly Cloudy,310,2013-03-27 19:51:00
4:51 PM,51.1,21.0,31,29.87,10.0,WNW,13.8,-,N/A,,Mostly Cloudy,300,2013-03-27 20:51:00
5:51 PM,51.8,23.0,33,29.87,10.0,NW,12.7,-,N/A,,Mostly Cloudy,320,2013-03-27 21:51:00
6:51 PM,48.9,23.0,36,29.90,10.0,NW,12.7,25.3,N/A,,Mostly Cloudy,320,2013-03-27 22:51:00
7:51 PM,48.0,25.0,41,29.92,10.0,WNW,24.2,28.8,N/A,,Mostly Cloudy,290,2013-03-27 23:51:00
8:51 PM,45.0,28.9,53,29.94,10.0,NW,17.3,26.5,N/A,,Scattered Clouds,310,2013-03-28 00:51:00
9:51 PM,44.1,28.0,53,29.96,10.0,NW,18.4,-,N/A,,Scattered Clouds,310,2013-03-28 01:51:00
10:51 PM,43.0,28.0,56,29.96,10.0,WNW,16.1,-,N/A,,Partly Cloudy,300,2013-03-28 02:51:00
11:51 PM,42.1,28.9,60,29.97,10.0,WNW,15.0,-,N/A,,Partly Cloudy,300,2013-03-28 03:51:00